User: anonymous   Login
Location: Oshawa
(43.9000°N, 78.8670°W)
Time: 13:28:35
(UTC-05:00)
Language:

Iridium 46 - Orbit

View from above orbital plane
View from above orbital plane
View from above satellite
View from above satellite

Ground track
Ground track

The orbit data is extracted from the following two-line orbital elements,

1 24905U 97043C   16036.49481843  .00000230  00000-0  75058-4 0  9994
2 24905  86.3981 104.0424 0002515 101.6210 258.5268 14.34214648966493
Epoch (UTC): 05 February 2016 11:52:32
Eccentricity: 0.0002515
inclination: 86.3981°
perigee height: 776 km
apogee height: 779 km
right ascension of ascending node: 104.0424°
argument of perigee: 101.6210°
revolutions per day: 14.34214648
mean anomaly at epoch: 258.5268°
orbit number at epoch: 96649

The dashed part of the orbit path shows where the satellite is in the earth's shadow,  

DLR